Change the Weather History Date:

Monday, December 5, 2011

  Actual Average Record
Temperature  
Mean Temperature 48 °F 50 °F  
Max Temperature 62 °F 61 °F 74 °F (2006)
Min Temperature 34 °F 40 °F 26 °F (2013)
Degree Days  
Heating Degree Days 17    
Month to date heating degree days 64  
Since 1 July heating degree days 716  
Cooling Degree Days 0    
Month to date cooling degree days 0  
Year to date cooling degree days 111  
Moisture  
Dew Point 33 °F    
Average Humidity 60    
Maximum Humidity 92    
Minimum Humidity 27    
Precipitation  
Precipitation 0.00 in - 2.09 in (1966)
Month to date precipitation 0.00  
Year to date precipitation 22.42  
Since 1 July precipitation 4.24  
Sea Level Pressure  
Sea Level Pressure 30.21 in    
Wind  
Wind Speed 3 mph (North)    
Max Wind Speed 8 mph    
Max Gust Speed 0 mph    
Visibility 8 miles    
Events      
T = Trace of Precipitation, MM = Missing Value Source: NWS Daily Summary

Daily Weather History Graph

Daily Weather History Graph

Search for Another Location

Airport or City:

Trip Planner

Search our weather history database for the weather conditions in past years. The results will help you decide how hot, cold, wet, or windy it might be!

Date:

Astronomy

Dec. 05, 2011 Rise Set
Actual Time 7:05 AM PST 4:50 PM PST
Civil Twilight 6:36 AM PST 5:19 PM PST
Nautical Twilight 6:04 AM PST 5:51 PM PST
Astronomical Twilight 5:32 AM PST 6:22 PM PST
Moon 1:46 PM PST (12/5) 2:36 AM PST (12/5)
Length of Visible Light 10h 42m
Length of Day
9h 45m
Waxing Gibbous, 80% of the Moon is Illuminated
Dec 5
Waxing Gibbous
Dec 10
Full
Dec 17
Last Quarter
Dec 24
New
Dec 31
First Quarter

Hourly Weather History & Observations

Time (PST) Temp. Windchill Dew Point Humidity Pressure Visibility Wind Dir Wind Speed Gust Speed Precip Events Conditions
12:53 AM 41.0 °F - 35.1 °F 79% 30.15 in 10.0 mi Calm Calm - N/A   Clear
1:24 AM 37.4 °F - 35.6 °F 93% 30.15 in 6.0 mi Calm Calm - N/A   Scattered Clouds
1:27 AM 37.4 °F - 35.6 °F 93% 30.15 in 2.5 mi Calm Calm - N/A   Mostly Cloudy
1:30 AM 39.2 °F - 35.6 °F 87% 30.15 in 1.2 mi Calm Calm - N/A   Mostly Cloudy
1:46 AM 39.2 °F - 35.6 °F 87% 30.16 in 1.0 mi Calm Calm - N/A   Mist
1:50 AM 39.2 °F - 35.6 °F 87% 30.16 in 1.5 mi Calm Calm - N/A   Scattered Clouds
2:00 AM 37.4 °F - 35.6 °F 93% 30.16 in 5.0 mi Calm Calm - N/A   Partly Cloudy
2:10 AM 37.4 °F - 35.6 °F 93% 30.16 in 2.0 mi Calm Calm - N/A   Clear
2:19 AM 37.4 °F - 35.6 °F 93% 30.16 in 9.0 mi Calm Calm - N/A   Clear
2:53 AM 37.9 °F 35.5 °F 35.1 °F 89% 30.17 in 10.0 mi NNW 3.5 mph - N/A   Clear
3:53 AM 37.0 °F 33.3 °F 34.0 °F 89% 30.18 in 7.0 mi NNW 4.6 mph - N/A   Clear
4:53 AM 37.0 °F 34.5 °F 34.0 °F 89% 30.17 in 10.0 mi NNW 3.5 mph - N/A   Clear
5:53 AM 37.9 °F - 34.0 °F 86% 30.20 in 10.0 mi Calm Calm - N/A   Clear
6:53 AM 36.0 °F - 32.0 °F 86% 30.21 in 10.0 mi Calm Calm - N/A   Clear
8:53 AM 46.0 °F 43.9 °F 33.1 °F 61% 30.24 in 10.0 mi East 4.6 mph - N/A   Clear
10:53 AM 55.9 °F - 28.9 °F 36% 30.25 in 10.0 mi North 4.6 mph - N/A   Clear
11:53 AM 57.9 °F - 30.0 °F 35% 30.23 in 10.0 mi NE 5.8 mph - N/A   Clear
12:53 PM 60.1 °F - 28.9 °F 31% 30.22 in 10.0 mi East 3.5 mph - N/A   Clear
1:53 PM 61.0 °F - 27.0 °F 27% 30.21 in 10.0 mi Calm Calm - N/A   Clear
3:53 PM 55.9 °F - 36.0 °F 47% 30.23 in 10.0 mi SSW 5.8 mph - N/A   Clear
4:53 PM 52.0 °F - 36.0 °F 54% 30.25 in 10.0 mi Calm Calm - N/A   Clear
5:53 PM 48.0 °F - 37.0 °F 66% 30.26 in 10.0 mi NW 4.6 mph - N/A   Clear
6:53 PM 46.0 °F 44.8 °F 34.0 °F 63% 30.26 in 10.0 mi NW 3.5 mph - N/A   Clear
7:53 PM 45.0 °F - 32.0 °F 60% 30.28 in 10.0 mi Calm Calm - N/A   Clear
8:53 PM 42.1 °F - 30.9 °F 65% 30.29 in 10.0 mi Calm Calm - N/A   Clear
9:53 PM 43.0 °F 41.3 °F 30.0 °F 60% 30.31 in 10.0 mi NW 3.5 mph - N/A   Clear
10:53 PM 41.0 °F - 30.0 °F 65% 30.31 in 10.0 mi Calm Calm - N/A   Clear